EW4276 Weather Reports


time (UTC)temp
C
wind
direction
speed
KPH
gust
KPH
rain 1hr
cm
rain 24hr
cm
rain mn
cm
humidity
%
barometer
mb
20260504070316 10 169 3.2 9.7 0.00 0.00 0.00 48 1013.8
20260504050326 10 176 1.6 6.4 0.00 0.00 0.00 46 1014.4
20260504045815 10 180 3.2 8.0 0.00 0.00 0.00 46 1014.4
20260504045328 10 169 3.2 8.0 0.00 0.00 0.00 46 1014.4
20260504044819 10 171 3.2 8.0 0.00 0.00 0.00 46 1014.4
20260504044331 10 165 4.8 8.0 0.00 0.00 0.00 44 1014.4
20260504043824 10 170 3.2 8.0 0.00 0.00 0.00 44 1014.4
20260504043316 10 173 3.2 8.0 0.00 0.00 0.00 44 1014.4
20260504042828 10 173 4.8 8.0 0.00 0.00 0.00 44 1014.4
20260504042324 10 170 4.8 8.0 0.00 0.00 0.00 43 1014.4
20260504041816 10 159 4.8 8.0 0.00 0.00 0.00 43 1014.4
20260504041329 10 169 4.8 9.7 0.00 0.00 0.00 43 1014.5
20260504040841 10 171 6.4 8.0 0.00 0.00 0.00 43 1014.5
20260504040333 10 175 4.8 9.7 0.00 0.00 0.00 43 1014.5
20260504035843 10 173 4.8 9.7 0.00 0.00 0.00 43 1014.5
20260504035314 10 175 1.6 8.0 0.00 0.00 0.00 43 1014.5
20260504034826 10 170 6.4 8.0 0.00 0.00 0.00 42 1014.5
20260504034338 10 167 3.2 6.4 0.00 0.00 0.00 42 1014.5
20260504033813 10 173 1.6 6.4 0.00 0.00 0.00 43 1014.5
20260504033346 10 170 3.2 6.4 0.00 0.00 0.00 43 1014.3
20260504032817 10 168 0.0 3.2 0.00 0.00 0.00 43 1014.3
20260504032329 10 168 0.0 3.2 0.00 0.00 0.00 43 1014.3
20260504031821 10 167 0.0 3.2 0.00 0.00 0.00 43 1014.3
20260504031332 10 167 1.6 4.8 0.00 0.00 0.00 44 1014.4
20260504030824 10 165 1.6 6.4 0.00 0.00 0.00 44 1014.3
20260504030316 10 175 1.6 6.4 0.00 0.00 0.00 45 1014.3
20260504025826 9 178 3.2 6.4 0.00 0.00 0.00 45 1014.3
20260504025322 9 169 1.6 6.4 0.00 0.00 0.00 46 1014.3
20260504024814 10 167 3.2 6.4 0.00 0.00 0.00 46 1014.4
20260504024346 10 170 6.4 8.0 0.00 0.00 0.00 45 1014.4
20260504023816 10 113 0.0 3.2 0.00 0.00 0.00 44 1014.3
20260504023328 10 113 0.0 1.6 0.00 0.00 0.00 44 1014.3
20260504022820 10 105 0.0 3.2 0.00 0.00 0.00 43 1014.3
20260504022313 10 100 1.6 4.8 0.00 0.00 0.00 44 1014.3
20260504021825 10 100 0.0 4.8 0.00 0.00 0.00 43 1014.3
20260504021317 10 103 1.6 4.8 0.00 0.00 0.00 44 1014.2
20260504020833 10 99 1.6 4.8 0.00 0.00 0.00 44 1014.2
20260504020325 9 96 1.6 3.2 0.00 0.00 0.00 45 1014.1
20260504015834 10 96 0.0 1.6 0.00 0.00 0.00 45 1014.1
20260504015325 10 96 0.0 0.0 0.00 0.00 0.00 45 1014.0
20260504014817 10 96 0.0 1.6 0.00 0.00 0.00 45 1013.9
20260504014329 10 96 0.0 1.6 0.00 0.00 0.00 44 1013.9
20260504013841 10 96 0.0 3.2 0.00 0.00 0.00 44 1013.9
20260504013332 10 96 0.0 3.2 0.00 0.00 0.00 44 1013.9
20260504012824 10 96 0.0 4.8 0.00 0.00 0.00 44 1013.8
20260504012320 10 102 0.0 4.8 0.00 0.00 0.00 44 1013.8
20260504011832 10 101 1.6 4.8 0.00 0.00 0.00 43 1013.7
20260504011324 10 119 0.0 4.8 0.00 0.00 0.00 42 1013.7
20260504010816 10 126 1.6 4.8 0.00 0.00 0.00 43 1013.7
20260504010328 10 125 0.0 3.2 0.00 0.00 0.00 44 1013.7
20260504005817 11 125 0.0 6.4 0.00 0.00 0.00 45 1013.7
20260504005330 11 125 3.2 6.4 0.00 0.00 0.00 41 1013.7
20260504004841 11 58 0.0 3.2 0.00 0.00 0.00 42 1013.6
20260504004332 11 360 0.0 3.2 0.00 0.00 0.00 41 1013.7
20260504003829 11 288 0.0 6.4 0.00 0.00 0.00 42 1013.5
20260504003321 11 287 1.6 4.8 0.00 0.00 0.00 40 1013.5
20260504002833 11 313 0.0 8.0 0.00 0.00 0.00 41 1013.6
20260504002324 11 9 1.6 4.8 0.00 0.00 0.00 41 1013.6
20260504001816 11 153 1.6 3.2 0.00 0.00 0.00 41 1013.6
20260504001328 11 117 0.0 3.2 0.00 0.00 0.00 41 1013.6
20260504000819 11 116 0.0 4.8 0.00 0.00 0.00 41 1013.6
20260504000331 11 313 0.0 4.8 0.00 0.00 0.00 40 1013.5
20260503235823 12 42 1.6 4.8 0.00 0.00 0.00 38 1013.5
20260503235315 12 56 0.0 12.9 0.00 0.00 0.00 38 1013.5
20260503234827 12 294 6.4 14.5 0.00 0.00 0.00 37 1013.5
20260503234319 12 98 6.4 14.5 0.00 0.00 0.00 37 1013.4
20260503233832 12 286 4.8 16.1 0.00 0.00 0.00 37 1013.4
20260503233344 13 306 9.7 16.1 0.00 0.00 0.00 37 1013.3
20260503232814 13 24 8.0 14.5 0.00 0.00 0.00 36 1013.3
20260503232326 13 15 4.8 14.5 0.00 0.00 0.00 36 1013.3
20260503231818 13 46 6.4 14.5 0.00 0.00 0.00 36 1013.3
20260503231313 13 57 4.8 14.5 0.00 0.00 0.00 37 1013.2
20260503230825 13 126 1.6 11.3 0.00 0.00 0.00 37 1013.2
20260503230317 13 291 4.8 14.5 0.00 0.00 0.00 36 1013.2
20260503225827 13 62 3.2 17.7 0.00 0.00 0.00 38 1013.3
20260503225319 13 185 9.7 17.7 0.00 0.00 0.00 36 1013.2
20260503224831 13 119 3.2 14.5 0.00 0.00 0.00 37 1013.3
20260503224322 13 299 4.8 12.9 0.00 0.00 0.00 36 1013.2
20260503223814 13 158 3.2 11.3 0.00 0.00 0.00 37 1013.2
20260503223331 13 178 4.8 14.5 0.00 0.00 0.00 37 1013.1
20260503222822 13 191 4.8 16.1 0.00 0.00 0.00 36 1013.2
20260503222334 13 49 3.2 14.5 0.00 0.00 0.00 37 1013.1
20260503221825 13 267 4.8 12.9 0.00 0.00 0.00 37 1013.1
20260503221317 13 275 4.8 12.9 0.00 0.00 0.00 37 1013.2
20260503220829 13 53 4.8 14.5 0.00 0.00 0.00 37 1013.3
20260503220320 13 170 6.4 14.5 0.00 0.00 0.00 35 1013.3
20260503215831 13 9 1.6 16.1 0.00 0.00 0.00 35 1013.3
20260503215322 13 78 4.8 22.5 0.00 0.00 0.00 36 1013.4
20260503214818 13 282 9.7 20.9 0.00 0.00 0.00 35 1013.3
20260503214331 14 294 9.7 22.5 0.00 0.00 0.00 34 1013.4
20260503213823 14 314 8.0 22.5 0.00 0.00 0.00 35 1013.3
20260503213315 14 279 4.8 16.1 0.00 0.00 0.00 37 1013.3
20260503212827 14 84 8.0 17.7 0.00 0.00 0.00 35 1013.3
20260503212319 14 20 6.4 19.3 0.00 0.00 0.00 36 1013.3
20260503211832 14 158 6.4 22.5 0.00 0.00 0.00 35 1013.2
20260503211324 14 71 8.0 17.7 0.00 0.00 0.00 36 1013.2
20260503210841 14 97 4.8 24.1 0.00 0.00 0.00 37 1013.4
20260503210352 14 263 4.8 24.1 0.00 0.00 0.00 36 1013.4
20260503205842 14 294 6.4 19.3 0.00 0.00 0.00 37 1013.4
20260503205313 14 200 8.0 17.7 0.00 0.00 0.00 35 1013.5
20260503204825 14 140 9.7 17.7 0.00 0.00 0.00 35 1013.4
20260503204317 14 63 6.4 12.9 0.00 0.00 0.00 36 1013.4
20260503203829 14 165 1.6 16.1 0.00 0.00 0.00 38 1013.4
20260503203341 14 17 4.8 16.1 0.00 0.00 0.00 38 1013.5
20260503202832 14 127 4.8 25.7 0.00 0.00 0.00 38 1013.6
20260503202323 14 281 14.5 25.7 0.00 0.00 0.00 35 1013.5
20260503201819 14 281 6.4 22.5 0.00 0.00 0.00 40 1013.6
20260503201332 14 257 12.9 22.5 0.00 0.00 0.00 34 1013.6
20260503200823 14 247 11.3 19.3 0.00 0.00 0.00 32 1013.7
20260503200336 14 9 4.8 24.1 0.00 0.00 0.00 35 1013.7
20260503195825 14 61 8.0 22.5 0.00 0.00 0.00 35 1013.8
20260503195317 14 113 8.0 24.1 0.00 0.00 0.00 35 1013.7
20260503194828 14 293 16.1 24.1 0.00 0.00 0.00 34 1013.8
20260503194320 14 304 14.5 20.9 0.00 0.00 0.00 35 1013.8
20260503193832 14 296 8.0 17.7 0.00 0.00 0.00 39 1014.0
20260503193328 13 112 4.8 25.7 0.00 0.00 0.00 36 1014.0
20260503192840 14 71 14.5 25.7 0.00 0.00 0.00 35 1013.9
20260503192331 14 95 6.4 22.5 0.00 0.00 0.00 37 1014.2
20260503191822 14 159 6.4 22.5 0.00 0.00 0.00 41 1014.3
20260503191314 13 148 8.0 22.5 0.00 0.00 0.00 39 1014.2
20260503190826 13 151 4.8 20.9 0.00 0.00 0.00 40 1014.4
20260503190338 13 298 8.0 20.9 0.00 0.00 0.00 37 1014.4
20260503185827 13 119 8.0 16.1 0.00 0.00 0.00 38 1014.4
20260503185339 13 9 9.7 19.3 0.00 0.00 0.00 37 1014.4
20260503184830 13 280 12.9 22.5 0.00 0.00 0.00 34 1014.5
20260503184343 13 360 6.4 24.1 0.00 0.00 0.00 36 1014.6
20260503183819 13 279 9.7 22.5 0.00 0.00 0.00 39 1014.5
20260503183351 13 360 8.0 24.1 0.00 0.00 0.00 41 1014.6
20260503182823 13 271 9.7 24.1 0.00 0.00 0.00 38 1014.7
20260503182315 13 251 6.4 14.5 0.00 0.00 0.00 39 1014.7
20260503181827 13 50 6.4 14.5 0.00 0.00 0.00 38 1014.7
20260503181318 12 121 6.4 33.8 0.00 0.00 0.00 40 1014.7
20260503180830 12 11 14.5 33.8 0.00 0.00 0.00 35 1014.8
20260503180322 12 294 12.9 20.9 0.00 0.00 0.00 39 1014.7
20260503175817 12 268 9.7 19.3 0.00 0.00 0.00 38 1014.9
20260503175349 13 146 8.0 14.5 0.00 0.00 0.00 40 1014.8
20260503174820 12 289 6.4 20.9 0.00 0.00 0.00 41 1014.9
20260503174351 12 125 6.4 20.9 0.00 0.00 0.00 38 1014.8
20260503173821 12 288 4.8 22.5 0.00 0.00 0.00 44 1015.0
20260503173314 12 294 12.9 22.5 0.00 0.00 0.00 40 1015.0
20260503172826 12 153 11.3 20.9 0.00 0.00 0.00 40 1015.1
20260503172318 12 176 4.8 27.4 0.00 0.00 0.00 44 1015.2
20260503171829 12 164 12.9 27.4 0.00 0.00 0.00 40 1015.2
20260503171321 12 309 6.4 17.7 0.00 0.00 0.00 41 1015.2
20260503170815 12 111 8.0 17.7 0.00 0.00 0.00 45 1015.4
20260503170328 11 52 3.2 22.5 0.00 0.00 0.00 42 1015.4
20260503150825 8 314 9.7 25.7 0.00 0.00 0.00 53 1016.2
20260503150316 8 28 11.3 24.1 0.00 0.00 0.00 48 1016.1
20260503131328 6 278 8.0 20.9 0.00 0.00 0.00 63 1016.2
20260503130819 6 277 11.3 22.5 0.00 0.00 0.00 62 1016.2
20260503130331 6 268 11.3 22.5 0.00 0.00 0.00 63 1016.2
20260503110342 3 292 8.0 19.3 0.00 0.00 0.00 74 1015.2
20260503090330 2 260 3.2 11.3 0.00 0.00 0.00 77 1014.1
20260503081328 3 274 4.8 11.3 0.00 0.00 0.00 74 1014.0
20260503080820 3 281 6.4 11.3 0.00 0.00 0.00 74 1014.0
20260503080315 3 270 3.2 14.5 0.00 0.00 0.00 74 1014.0
20260503072813 3 310 4.8 14.5 0.00 0.00 0.00 74 1013.7